Alexandria International Airport
KAEX : now visible

Airfield :











YOU CAN JOIN US ON...

 
LOGIN :

Register | Disclaimer

   EN    FR    IT 

 









Legend :    VFR   Marginal VFR   IFR   Intensive IFR   Very Intensive IFR
Visi :
Ceiling :
>= 8 km
>= 3000ft
5 to 8 km
1000 to 3000 ft
1500m to 5 km
500 to 1000 ft
800 to 1500m
200 to 500 ft
< 800m
< 200 ft
Symbols :   Thunderstorms  Fog  Heavy snow  Heavy precipitations  Wind > 20 kt







- Airport Elevation : 89 ft
- IATA code : AEX


KAEX - Alexandria International

CURRENT METAR :
  • 181953Z 25007KT 10SM CLR 33/23 A3001 RMK AO2 SLP162 T03330228

EXPIRED METARs :
  • 181853Z VRB05KT 10SM CLR 33/23 A3002 RMK AO2 SLP167 T03280233
  • 181753Z VRB05KT 10SM CLR 32/24 A3004 RMK AO2 SLP175 T03220239 10322 20239 58007
  • 181653Z 20006KT 10SM CLR 31/24 A3005 RMK AO2 SLP178 T03110244

TAF KAEX
Valid from the 18 at 18:00 until the 19 at 18:00 UTC


181720Z 1818/1918 VRB05KT P6SM FEW015 FEW035
FM191100 VRB05KT 3SM BR SCT005 BKN040
TEMPO 1911/1914 1/4SM FG BKN005
FM191400 VRB03KT P6SM BKN100
KZHU FIR / North America



MET'MAP, your aeronautical weather chart ! - Copyright ORBIFLY December 2007 - Disclaimer

ORBIFLY MET'MAP TEAM :

Programming & Development : Alexandra Zaïnal
Concept & Development : Baudouin d'Aumeries
Co-Development & Prog : Marc-Olivier Méhu
Technical & hardware support : Manuel Goepfert

Contact : metmap@orbifly.com




SOURCES & CREDITS :

   NOAA       Earth
Advisory